Regional Weather Roundup
Issued by NWS

Home | Current Version | Previous Version | Graphics & Text | Print | Product List | Glossary On
Versions: 1 2 3 4 5 6 7 8 9 10 11 12 13 14 15 16 17 18 19 20 21 22 23 24 25 26 27 28 29 30 31 32 33 34 35 36 37 38 39 40 41 42 43 44 45 46 47 48 49 50
312
ASUS45 KBOU 290407
RWRCO

WEATHER ROUNDUP FOR COLORADO
NATIONAL WEATHER SERVICE DENVER/BOULDER CO
1000 PM MDT FRI APR 28 2017

NOTE: "FAIR" INDICATES FEW OR NO CLOUDS BELOW 12000 FEET WITH NO
SIGNIFICANT WEATHER AND/OR OBSTRUCTIONS TO VISIBILITY.

COZ001>005-013-030-031-290500-
...NORTHWEST COLORADO...

CITY           SKY/WX    TMP DP  RH WIND       PRES   REMARKS
CRAIG          MOCLDY    35  30  82 E5        29.90R WCI  31
HAYDEN         FAIR      32  25  74 E7        29.89S WCI  26
MEEKER         CLOUDY    32  30  92 NW5       29.88R WCI  27
MOUNT WERNER   NOT AVBL
STEAMBOAT SPGS CLOUDY    31  28  90 NW3       29.89R
WALDEN           N/A     25  14  63 NE16G22   29.96R WCI  12
$$

COZ006>008-011-290500-
...WEST CENTRAL VALLEYS...

CITY           SKY/WX    TMP DP  RH WIND       PRES   REMARKS
GRAND JUNCTION FAIR      42  23  46 W8        29.82R
MONTROSE       MOCLDY    39  23  52 S8        29.81S
EAGLE          CLOUDY    39  23  52 E22       29.87R
RIFLE          FAIR      38  26  62 NW7       29.84R
DELTA          FAIR      43  22  43 CALM      29.80R
NUCLA          MOCLDY    36  23  60 CALM      29.85S
$$

COZ017>023-064>068-290500-
...SOUTHWEST COLORADO...

CITY           SKY/WX    TMP DP  RH WIND       PRES   REMARKS
DURANGO        FAIR      30  24  78 E7        29.80R WCI  23
CORTEZ         FAIR      32  23  69 E5        29.81R WCI  27
PAGOSA SPRINGS FAIR      32  24  73 CALM      29.79R
TELLURIDE      LGT SNOW  23  22  96 CALM      29.82R
WOLF CREEK PAS NOT AVBL
$$

COZ009-010-012-014-032>034-037-058>063-290500-
...CENTRAL COLORADO...

CITY           SKY/WX    TMP DP  RH WIND       PRES   REMARKS
ASPEN          CLOUDY    33  23  66 CALM      29.81S
BUENA VISTA    LGT SNOW  30  24  79 E9        29.89R WCI  22
COPPER MTN     LGT SNOW  18  12  79 MISG      29.87R
BERTHOUD PASS  LGT SNOW   5  -4  66 MISG      29.89R VSB 3/4
COTTONWOOD PAS LGT SNOW  27  25  93 E12G23    29.88R VSB 3/4 WCI  16
GUNNISON       FAIR      33  21  61 S9        29.80R WCI  25
KREMMLING      CLOUDY    34  28  80 E6        29.92R WCI  29
LEADVILLE      LGT SNOW  20  14  77 E7        29.85R WCI  11
MONARCH PASS   CLOUDY    18  14  86 E41G52    29.86F WCI  -5
SALIDA         CLOUDY    32  31  96 N8        29.95R WCI  25
SUNLIGHT       CLOUDY    18  16  93 NE5       29.88R WCI  11
WILKERSON PASS LGT SNOW  18  14  86 E17G32    29.89R VSB 3/4 WCI   2
$$

COZ069>075-290500-
...SAN LUIS VALLEY/SANGRE DE CRISTO MOUNTAINS...

CITY           SKY/WX    TMP DP  RH WIND       PRES   REMARKS
ALAMOSA        FAIR      30  27  88 SW3       29.81R
LA VETA PASS   SNOW      27  23  86 N22G32    29.96S VSB 1/4 WCI  12
SAGUACHE       FAIR      30  19  64 CALM      29.80S
$$

COZ035-036-038>040-290500-
...NORTHERN COLORADO FRONT RANGE...

CITY           SKY/WX    TMP DP  RH WIND       PRES   REMARKS
DENVER INTL AP LGT SNOW  30  28  92 NE23G29   30.03R FOG     WCI  17
DMNS CITY PARK   N/A     31  31 100 NE13      30.06R WCI  21
AURORA         LGT SNOW  30  29  99 NE18      30.04R FOG     WCI  17
FRONT RANGE AP NOT AVBL
ERIE MUNI ARPT LGT SNOW  32  31  96 N10G17    30.08R WCI  24
BOULDER MUN AP LGT SNOW  32  32 100 N10G17    30.07R WCI  24
CENTENNIAL     SNOW      29  29 100 N12       30.03R VSB 1/2 WCI  19
BROOMFIELD     LGT SNOW  30  30 100 N17       30.06R WCI  18
FORT COLLINS   FLURRIES  31  29  92 NE13      30.10S WCI  21
LONGMONT       LGT SNOW  33  32  94 N10       30.11R WCI  25
$$

COZ041-046-047-076>085-087-088-290500-
...PIKES PEAK/PALMER DIVIDE AND SOUTHERN FOOTHILLS...

CITY           SKY/WX    TMP DP  RH WIND       PRES   REMARKS
COLO. SPRINGS  LGT SNOW  33  30  88 N16       29.96R FOG     WCI  23
A. F. ACADEMY  LGT SNOW  32  28  86 N17G24    29.96R FOG     WCI  21
SCHRIEVER AFB  LGT SNOW  30  30 100 NE24G32   29.94  WCI  16
ELLICOTT       SNOW     N/A N/A N/A NE26G36   29.93R
FALCON         LGT SNOW  29  28  94 NE21G28   29.96R WCI  16
FORT CARSON    LGT SNOW  33  31  94 N20       29.95R FOG     WCI  21
LIMON          LGT SNOW  30  30 100 NE18      29.99R FOG     WCI  18
MONUMENT HILL  LGT SNOW  27  25  93 NE13G24   30.00R VSB 1   WCI  16
TRINIDAD       LGT RAIN  38  34  85 NW18      29.84R
$$

COZ042>045-048>051-090-091-290500-
...NORTHEAST COLORADO...

CITY           SKY/WX    TMP DP  RH WIND       PRES   REMARKS
GREELEY ARPT   CLOUDY    32  30  92 NE15      30.10R WCI  22
AKRON          FRZ RAIN  32  30  92 NE15G25   30.06R FOG     WCI  22
BURLINGTON     NOT AVBL
WRAY           NOT AVBL
STERLING       CLOUDY    34  32  93 NE13G21   30.08S WCI  25
HOLYOKE        DRIZZLE   36  34  93 N18       30.08F
FORT MORGAN    LGT RAIN  32  31  95 NE20      30.07S WCI  20
$$

COZ086-089-092>099-290500-
...SOUTHEAST COLORADO...

CITY           SKY/WX    TMP DP  RH WIND       PRES   REMARKS
PUEBLO         LGT SNOW  34  32  92 NE21G26   29.94R VSB 1   WCI  22
LA JUNTA       CLOUDY    38  35  89 NE25G36   29.91R FOG
LAMAR          CLOUDY    38  35  89 NE22G32   29.91R
SPRINGFIELD      N/A     41  41 100 E20       29.81F
$$




USA.gov is the U.S. government's official web portal to all federal, state and local government web resources and services.